TimePST,TemperatureF,Dew PointF,Humidity,Sea Level PressureIn,VisibilityMPH,Wind Direction,Wind SpeedMPH,Gust SpeedMPH,PrecipitationIn,Events,Conditions,WindDirDegrees,DateUTC
12:15 AM,32.0,32.0,100,30.24,10.0,NE,3.5,-,N/A,,Clear,40,2013-01-19 08:15:00
12:35 AM,32.0,32.0,100,30.24,7.0,Calm,Calm,-,N/A,,Clear,0,2013-01-19 08:35:00
12:55 AM,32.0,32.0,100,30.24,10.0,ESE,3.5,-,N/A,,Clear,110,2013-01-19 08:55:00
1:15 AM,32.0,32.0,100,30.24,10.0,East,3.5,-,N/A,,Clear,100,2013-01-19 09:15:00
1:35 AM,32.0,32.0,100,30.24,10.0,East,4.6,-,N/A,,Clear,90,2013-01-19 09:35:00
1:55 AM,33.8,32.0,93,30.24,10.0,East,8.1,-,N/A,,Clear,90,2013-01-19 09:55:00
2:15 AM,35.6,32.0,87,30.25,10.0,East,6.9,-,N/A,,Clear,90,2013-01-19 10:15:00
2:35 AM,35.6,32.0,87,30.25,10.0,East,8.1,-,N/A,,Clear,90,2013-01-19 10:35:00
2:55 AM,41.0,32.0,70,30.25,10.0,ESE,4.6,-,N/A,,Clear,110,2013-01-19 10:55:00
3:15 AM,33.8,30.2,87,30.25,10.0,East,6.9,-,N/A,,Clear,80,2013-01-19 11:15:00
3:35 AM,35.6,32.0,87,30.25,10.0,ENE,3.5,-,N/A,,Clear,70,2013-01-19 11:35:00
3:55 AM,33.8,32.0,93,30.24,10.0,East,4.6,-,N/A,,Clear,80,2013-01-19 11:55:00
5:15 AM,37.4,32.0,81,30.24,10.0,Calm,Calm,-,N/A,,Clear,0,2013-01-19 13:15:00
5:55 AM,39.2,32.0,75,30.25,10.0,East,5.8,-,N/A,,Clear,90,2013-01-19 13:55:00
6:15 AM,39.2,32.0,75,30.25,10.0,East,6.9,-,N/A,,Clear,80,2013-01-19 14:15:00
6:35 AM,39.2,32.0,75,30.25,10.0,East,6.9,-,N/A,,Clear,80,2013-01-19 14:35:00
7:35 AM,37.4,32.0,81,30.26,10.0,ESE,3.5,-,N/A,,Clear,110,2013-01-19 15:35:00
7:55 AM,37.4,32.0,81,30.27,10.0,ESE,4.6,-,N/A,,Clear,110,2013-01-19 15:55:00
8:15 AM,35.6,30.2,81,30.27,10.0,Calm,Calm,-,N/A,,Clear,0,2013-01-19 16:15:00
8:35 AM,33.8,32.0,93,30.29,10.0,ESE,3.5,-,N/A,,Clear,120,2013-01-19 16:35:00
8:55 AM,37.4,32.0,81,30.29,10.0,Calm,Calm,-,N/A,,Clear,0,2013-01-19 16:55:00
9:15 AM,39.2,33.8,81,30.30,10.0,Calm,Calm,-,N/A,,Clear,0,2013-01-19 17:15:00
9:35 AM,41.0,33.8,76,30.31,7.0,South,4.6,-,N/A,,Clear,190,2013-01-19 17:35:00
9:55 AM,41.0,37.4,87,30.32,2.0,South,4.6,-,N/A,,Scattered Clouds,180,2013-01-19 17:55:00
10:15 AM,41.0,39.2,93,30.32,0.2,SSW,4.6,-,N/A,Fog,Fog,200,2013-01-19 18:15:00
10:35 AM,41.0,39.2,93,30.33,0.5,South,3.5,-,N/A,Fog,Fog,170,2013-01-19 18:35:00
10:55 AM,41.0,41.0,100,30.32,4.0,South,3.5,-,N/A,,Mostly Cloudy,170,2013-01-19 18:55:00
11:35 AM,42.8,41.0,93,30.31,2.5,SW,5.8,-,N/A,,Mist,220,2013-01-19 19:35:00
11:55 AM,44.6,41.0,87,30.31,3.0,WSW,4.6,-,N/A,,Mist,250,2013-01-19 19:55:00
12:15 PM,44.6,41.0,87,30.30,4.0,West,4.6,-,N/A,,Clear,260,2013-01-19 20:15:00
12:35 PM,44.6,41.0,87,30.30,4.0,West,4.6,-,N/A,,Scattered Clouds,260,2013-01-19 20:35:00
12:55 PM,42.8,41.0,93,30.30,3.0,WSW,4.6,-,N/A,,Overcast,250,2013-01-19 20:55:00
1:15 PM,42.8,41.0,93,30.29,4.0,SSW,4.6,-,N/A,,Overcast,210,2013-01-19 21:15:00
1:35 PM,42.8,41.0,93,30.29,3.0,West,4.6,-,N/A,,Overcast,270,2013-01-19 21:35:00
1:55 PM,41.0,41.0,100,30.29,3.0,West,3.5,-,N/A,,Overcast,280,2013-01-19 21:55:00
2:15 PM,42.8,41.0,93,30.29,3.0,West,4.6,-,N/A,,Overcast,280,2013-01-19 22:15:00
2:35 PM,41.0,41.0,100,30.29,4.0,Calm,Calm,-,N/A,,Overcast,0,2013-01-19 22:35:00
2:55 PM,41.0,41.0,100,30.29,4.0,SW,3.5,-,N/A,,Overcast,230,2013-01-19 22:55:00
3:15 PM,41.0,39.2,93,30.29,4.0,Calm,Calm,-,N/A,,Overcast,0,2013-01-19 23:15:00
3:35 PM,41.0,41.0,100,30.29,2.5,Calm,Calm,-,N/A,,Overcast,0,2013-01-19 23:35:00
3:55 PM,41.0,41.0,100,30.29,2.0,Calm,Calm,-,N/A,,Overcast,0,2013-01-19 23:55:00
4:15 PM,41.0,39.2,93,30.29,1.5,Calm,Calm,-,N/A,,Overcast,0,2013-01-20 00:15:00
4:35 PM,41.0,41.0,100,30.30,1.0,West,3.5,-,N/A,,Overcast,280,2013-01-20 00:35:00
4:55 PM,41.0,39.2,93,30.30,0.8,Calm,Calm,-,N/A,,Overcast,0,2013-01-20 00:55:00
5:15 PM,41.0,41.0,100,30.30,1.5,Calm,Calm,-,N/A,,Overcast,0,2013-01-20 01:15:00
5:35 PM,41.0,39.2,93,30.30,0.5,Calm,Calm,-,N/A,Fog,Fog,0,2013-01-20 01:35:00
5:55 PM,41.0,41.0,100,30.31,0.8,NNW,5.8,-,N/A,,Overcast,330,2013-01-20 01:55:00
6:15 PM,41.0,39.2,93,30.31,0.5,Calm,Calm,-,N/A,Fog,Fog,0,2013-01-20 02:15:00
6:35 PM,41.0,41.0,100,30.31,0.5,Calm,Calm,-,N/A,Fog,Fog,0,2013-01-20 02:35:00
6:55 PM,41.0,41.0,100,30.31,1.0,Calm,Calm,-,N/A,,Overcast,0,2013-01-20 02:55:00
7:15 PM,41.0,41.0,100,30.32,0.8,NE,3.5,-,N/A,,Overcast,50,2013-01-20 03:15:00
7:35 PM,41.0,41.0,100,30.32,1.2,NE,5.8,-,N/A,,Overcast,50,2013-01-20 03:35:00
7:55 PM,39.2,39.2,100,30.32,1.0,ENE,8.1,-,N/A,,Overcast,70,2013-01-20 03:55:00
8:15 PM,39.2,39.2,100,30.32,1.0,ENE,6.9,-,N/A,,Overcast,60,2013-01-20 04:15:00
8:35 PM,39.2,37.4,93,30.32,0.8,NE,6.9,-,N/A,,Overcast,40,2013-01-20 04:35:00
8:55 PM,39.2,37.4,93,30.32,1.0,ENE,5.8,-,N/A,,Overcast,70,2013-01-20 04:55:00
9:15 PM,39.2,37.4,93,30.32,1.5,NE,4.6,-,N/A,,Overcast,40,2013-01-20 05:15:00
9:35 PM,37.4,37.4,100,30.32,2.0,NE,3.5,-,N/A,,Overcast,40,2013-01-20 05:35:00
9:55 PM,37.4,37.4,100,30.32,3.0,ENE,5.8,-,N/A,,Overcast,70,2013-01-20 05:55:00
10:15 PM,37.4,37.4,100,30.32,3.0,NE,4.6,-,N/A,,Overcast,50,2013-01-20 06:15:00
10:35 PM,37.4,37.4,100,30.32,3.0,ENE,3.5,-,N/A,,Overcast,60,2013-01-20 06:35:00
10:55 PM,35.6,35.6,100,30.32,3.0,Calm,Calm,-,N/A,,Overcast,0,2013-01-20 06:55:00
11:15 PM,35.6,35.6,100,30.32,2.5,Calm,Calm,-,N/A,,Scattered Clouds,0,2013-01-20 07:15:00
11:35 PM,35.6,35.6,100,30.32,1.5,Calm,Calm,-,N/A,,Mist,0,2013-01-20 07:35:00
11:55 PM,33.8,33.8,100,30.32,4.0,Calm,Calm,-,N/A,,Clear,0,2013-01-20 07:55:00